ION SCV-004

导读

ION SCV-004是一颗由意大利关联机构参与的卫星,于北京时间2022年1月13日发射升空,具体发射执行在美国卡纳维拉尔角,依托猎鹰9号运载火箭完成入轨任务。该卫星被纳入NASA航天器目录,编号为2022-002K,作为太空部署的航天器,它承担着相关通信技术试验与空间观测相关任务,是2022年年初小型卫星组网试验任务中的一环,目前仍在轨道开展相关既定任务。

基本信息
目录编号:
50993
目录名称:
ION SCV-004
国际标识:
2022-002K
轨道中心:
EARTH
卫星名称:
ION SCV-004
卫星全名:
--
卫星状态:
在轨 (已飞行1695 天)
发射日期:
2022-01-13 UTC
国别 :
意大利 (IT)
星等 :
--
轨道信息
数据来源 国际轨道数据
星历时间: 2026-09-04T09:37:55+0800
8小时前
查看轨道信息
半长轴: 6850.585km
偏心率: 0.0008897
轨道倾角: 97.275°
近地点辐角 77.030°
升交点赤经 303.247°
平近点角 283.193°
近地点: 466.353km
远地点: 478.543km
周期: 94.048分钟
每日圈数: 15.311274
详细信息
使用方式:
暂无
2D轨道图
3D轨道图
轨道高度分析图
轨道倾角分析图
轨道综合分析图
查看轨道综合分析图
交会数据列表
事件ID 空间交会对象 最接近时刻(TCA) 交会距离 交会风险概率(CRP) 交会风险指数(CRI) 操作
CDM_260904-080205-099306-303421
2026-09-04T
08:02:48+0000
0.700 km
远距离
8.442047E-5 中风险 0.74
CDM_260903-041405-099306-426323
2026-09-03T
04:14:20+0000
0.911 km
远距离
2.749927E-5 中风险 0.64
CDM_260904-225905-099305-812821
2026-09-04T
22:59:30+0000
1.143 km
极远距离
1.49504E-5 中风险 0.58
CDM_260830-230205-017005-099324
2026-08-30T
23:02:24+0000
1.270 km
极远距离
1.090445E-5 中风险 0.56
CDM_260905-221605-099305-841821
2026-09-05T
22:16:59+0000
1.621 km
极远距离
5.108934E-6 低风险 0.49
CDM_260904-160105-099306-968721
2026-09-04T
16:01:36+0000
1.833 km
极远距离
3.597496E-6 低风险 0.46
CDM_260904-112105-099306-912821
2026-09-04T
11:21:08+0000
1.917 km
极远距离
3.113378E-6 低风险 0.45
CDM_260906-040505-099306-484821
2026-09-06T
04:05:12+0000
1.974 km
极远距离
2.956453E-6 低风险 0.44
CDM_260905-064705-099306-794521
2026-09-05T
06:47:27+0000
1.891 km
极远距离
2.352552E-6 低风险 0.42
CDM_260828-002604-782105-099322
2026-08-28T
00:26:42+0000
2.240 km
极远距离
2.078884E-6 低风险 0.41